Weather in Novopolevo

Russia / Oryol Oblast     52°31′54″N   36°20′24″E
temp.,
°C
wind,
m/s
gust,
m/s
humid.,
%
clouds,
%
prec.,
mm/h
press.,
hPa
HPBL,
m
16 may, sun
sun1600:00+12ssw34920 0.0 101260
03:00+11s34923 0.0 101354
06:00+13s3488100 0.0 101379
09:00+18s347461 0.0 1013394
12:00+21ssw46563 0.8 10131608
15:00+22sw465552 0.8 10132036
18:00+20ese01676 0.0 101211
21:00+16ne237542 0.0 101217
17 may, mon
mon1700:00+14ene48795 0.0 1012125
03:00+13ene4128572 0.1 1011217
06:00+15e5129593 1.9 1010249
09:00+20e611785 1.9 1008406
12:00+23ese71462100 0.0 10081151
15:00+24ese815605 0.0 10071515
18:00+22se814665 0.0 1006805
21:00+18se514815 0.0 1007348
18 may, tue
tue1800:00+17se5148499 0.0 1007318
03:00+15se489530 0.1 1007129
06:00+15se37955 0.6 1007170
09:00+20sse6983100 0.9 1007629
12:00+22sse466882 0.0 10071281
15:00+23sse596694 0.5 10051504
18:00+18ssw3783100 1.1 1006202
21:00+15s3691100 1.2 1006126
19 may, wed
wed1900:00+15se279594 0.8 1006260
03:00+15se5109393 0.8 1005328
06:00+14se499413 0.1 1005331
09:00+16sse5784100 0.3 1006716
12:00+18sse6776100 1.3 10061078
15:00+19s6866100 2.1 10061598
18:00+15sse4687100 1.4 1006235
21:00+13sse369285 2.2 1006115
20 may, thu
thu2000:00+11sse379314 0.0 1006133
03:00+10sse379652 0.0 1006148
06:00+11sse3798100 0.1 1006315
09:00+12ssw4694100 0.3 1006707
12:00+14sw7985100 0.7 1008981
15:00+16sw8107586 0.9 10091199
18:00+15wsw6117737 0.2 10111198
21:00+12ssw379012 0.2 1013127